DECAYED

STARLINK-1965, 47566 (Decayed)

Orbit data source: Space-Track

STARLINK-1965, 47566 was a payload satellite owned by SpaceX/Seattle (US) in LEO that was launched on Thu, 04 Feb 2021 UTC via an FALCON 9 launch vehicle from the Air Force Eastern Test Range (AFETR). Payload-class satellites include a variety of spacecraft equipped with specific instruments for various scientific and technological missions. These include communications satellites like Starlink; space stations such as the ISS; scientific satellites like the Hubble; Earth observation satellites from companies like Planet Labs, Umbra, and HawkEye 360; GPS; miniature CubeSats for education and research; and military/defense satellites.

Not visible in the next 10 days
Identifier
47566, 2021-009U
Orbit
Decayed
Country
Flag of USUS
Related business
Manufacturer
SpaceX/Seattle
Mission
Decayed Commercial Communications
Bus & Motor
STARLINK, Unknown motor
Mass
260 kg wet, ~248 kg dry
Launch date (UTC)
2021-02-04 (5 years ago)
Launch vehicle
FALCON 9
Launch site
Air Force Eastern Test Range (AFETR)
Object type
Payload
Rocket body
Debris
Shape & HBR
Box + 1 Pan, 10.1 m
Radar Cross Section
13.562 m², Large (>1 m²)

Expand to show TLE details & history
Last TLE update: 2 months ago

TLE from 2 months ago
0 STARLINK-1965
1 47566U 21009U   26110.74527424  .15638374  12550-4  20884-3 0  9994
2 47566  52.9916  65.8778 0006127 233.0044 127.0445 16.48911367288901
Epoch: 2026-04-20T17:53Z
TLE epoch observation values (Epoch: 2026-04-20T17:53:11.694Z)
Latitude
-0.00004°
Longitude
-51.25195°
Altitude
145.539 km
Speed
7.819 km/s
True Right ascension
04h 23m 30s
True Declination
0° 00' 00"
Sunlit
Object was in daylight at epoch
Visualization orbit readout
Latitude
Unknown
Longitude
Unknown
Altitude
Unknown
Speed
Unknown
Apparent Right ascension
Unknown
Apparent Declination
Unknown
Sunlit
N/A
Visualization observer readout
Local Sidereal Time
21:39:47
Azimuth
Unknown
Elevation
Unknown
Doppler factor
Unknown
Orbital elements
Apogee altitude
146.497 km
Perigee altitude
138.506 km
Semi-major axis
6,520.639 km
Eccentricity
0.00061
Inclination
52.9916°
RAAN
65.8778°
Arg. of periapsis
233.0044°
True anomaly
127.10051°
Mean anomaly
127.0445°
Eccentric anomaly
127.07251°
Mean motion
4.122 °/min
Orbital period
87.34 mins
BSTAR
0.00020884
Loading maneuver chart data...
Computing Atmospheric mass density...

Documentation

Showing up to 5 results
|